Location: Boiro
(42.6475°N, 8.8834°W)
Time: 18:28:57
(UTC+01:00)

A-11 Canister half - Pass Details

Date: 02 December 2021
Orbit: 1516 x 1684 km, 47.2° (Epoch: 26 January)

Event Time Altitude Azimuth Distance (km) Brightness Sun altitude
Rises 06:52:55 0° 189° (S) 4,717 11.6 -20.4°
Reaches altitude 10° 06:56:42 10° 177° (S) 3,763 11.2 -19.7°
Maximum altitude 07:03:51 24° 127° (SE) 2,854 11.1 -18.4°
Drops below altitude 10° 07:11:10 10° 79° (E) 3,877 12.1 -17.1°
Sets 07:15:06 0° 67° (ENE) 4,891 12.5 -16.4°
